Flag for U.S.A. Weather past 2 weeks in Glendale, California, U.S.A.

Now
55 °F

Clear.


Feels Like: 55 °F
Forecast: 46 / 62 °F
Wind: No wind

Location: Burbank-Glendale-Pasadena Airport

Current Time: Dec 18, 2014 at 7:34:13 PM

Latest Report: Dec 18, 2014 at 6:53 PM


Visibility: 10 mi

Pressure: 30.16 "Hg

Humidity: 72%

Dew point: 46 °F

Location of GlendaleLocation

Historic Weather in Glendale — Graph

°F

Glendale temperature yesterday

Maximum temperature yesterday: 61 °F (at 12:53 PM)
Minimum temperature yesterday: 48 °F (at 11:53 PM)
Average temperature yesterday: 55 °F

Past Weeks' High & Low Weather Summary

 TemperatureHumidityPressure
High78 °F (Dec 8, 1:53 PM)94% (Dec 12, 1:56 AM)30.18 "Hg (Dec 12, 1:56 AM)
Low42 °F (Dec 14, 6:53 AM)28% (Dec 8, 1:53 PM)29.75 "Hg (Dec 12, 2:53 AM)
Average58 °F69%30.02 "Hg
* Reported Dec 3 5:53 PM — Dec 18 5:53 PM, Glendale, Weather by CustomWeather, © 2014

Note: Actual official high and low records may vary slightly from our data, if they occured in-between our weather recording intervals... More about our weather records

Advertising

Glendale weather history for previous 24 hours

 ConditionsComfort  
Time TempWeatherWind HumidityBarometerVisibility
5:53 PM
Dec 18
57 °FClear.No wind67%30.15 "Hg10 mi
4:53 PM59 °FPassing clouds.3 mph62%30.14 "Hg10 mi
3:53 PM60 °FPassing clouds.6 mph58%30.11 "Hg10 mi
2:53 PM61 °FPassing clouds.6 mph58%30.10 "Hg10 mi
1:53 PM61 °FOvercast.3 mph54%30.10 "Hg10 mi
12:53 PM60 °FOvercast.No wind56%30.11 "Hg10 mi
11:53 AM59 °FOvercast.3 mph56%30.14 "Hg10 mi
10:53 AM56 °FOvercast.No wind62%30.16 "Hg10 mi
9:53 AM55 °FMore clouds than sun.No wind69%30.18 "Hg10 mi
8:53 AM51 °FOvercast.No wind74%30.16 "Hg10 mi
7:53 AM50 °FOvercast.5 mph74%30.14 "Hg10 mi
6:53 AM47 °FPartly sunny.No wind83%30.13 "Hg10 mi
5:53 AM47 °FOvercast.No wind80%30.11 "Hg10 mi
4:53 AM45 °FPassing clouds.No wind86%30.10 "Hg10 mi
3:53 AM46 °FPassing clouds.No wind83%30.09 "Hg10 mi
2:53 AM47 °FClear.No wind83%30.09 "Hg10 mi
1:53 AM47 °FClear.No wind83%30.09 "Hg10 mi
12:53 AM48 °FClear.No wind83%30.08 "Hg10 mi
11:53 PM
Dec 17
48 °FClear.No wind83%30.08 "Hg10 mi
10:53 PM49 °FClear.No wind80%30.09 "Hg10 mi
9:53 PM51 °FClear.No wind74%30.08 "Hg10 mi
8:53 PM53 °FClear.3 mph72%30.07 "Hg10 mi
7:53 PM55 °FPassing clouds.3 mph67%30.06 "Hg10 mi
Weather by CustomWeather, © 2014

See weather overviewHow to use our weather pages